TRA14R EHAM-LPMA

Flight info

Callsign TRA14R
Flight time N/A
Altitude 34000
Route IDRID L980 LOGAN DCT SAM/N0446F350 M195 LORKU DCT EBOMO DCT COQUE DCT KORUL DCT DEMOS DCT ASMAR DCT LIDRO
Aircraft A21N/M-SDE3FGHIRWY/LB1

Departure

Time 2026-04-27 12:48
Airport Amsterdam Airport Schiphol (EHAM)

Arrival

Time N/A
Airport Cristiano Ronaldo International Airport (LPMA)
Time Latitude Longitude Altitude Speed Heading
2026-04-27 12:06 52.30916 4.76628 -3 ft 0 kts 184°
2026-04-27 12:27 52.30918 4.76628 -3 ft 1 kts 182°
2026-04-27 12:27 52.30930 4.76636 -3 ft 2 kts 210°
2026-04-27 12:28 52.30944 4.76646 -3 ft 2 kts 199°
2026-04-27 12:28 52.30958 4.76655 -3 ft 2 kts 203°
2026-04-27 12:28 52.30971 4.76664 -3 ft 2 kts 202°
2026-04-27 12:28 52.30985 4.76673 -3 ft 2 kts 202°
2026-04-27 12:29 52.30994 4.76679 -3 ft 0 kts 203°
2026-04-27 12:29 52.31001 4.76681 -3 ft 1 kts 147°
2026-04-27 12:29 52.31005 4.76673 -3 ft 1 kts 94°
2026-04-27 12:29 52.31005 4.76664 -3 ft 1 kts 79°
2026-04-27 12:30 52.31004 4.76659 -3 ft 0 kts 82°
2026-04-27 12:32 52.31005 4.76677 -3 ft 3 kts 83°
2026-04-27 12:32 52.31009 4.76734 -3 ft 5 kts 84°
2026-04-27 12:33 52.31024 4.76791 -3 ft 5 kts 51°
2026-04-27 12:33 52.31053 4.76834 -3 ft 6 kts 40°
2026-04-27 12:33 52.31101 4.76889 -3 ft 9 kts 33°
2026-04-27 12:33 52.31154 4.76947 -3 ft 9 kts 33°
2026-04-27 12:34 52.31208 4.77003 -3 ft 8 kts 33°
2026-04-27 12:34 52.31259 4.77058 -3 ft 8 kts 33°
2026-04-27 12:34 52.31309 4.77112 -3 ft 8 kts 34°
2026-04-27 12:34 52.31362 4.77171 -4 ft 9 kts 29°
2026-04-27 12:35 52.31426 4.77193 -3 ft 9 kts
2026-04-27 12:35 52.31496 4.77199 -3 ft 10 kts
2026-04-27 12:35 52.31562 4.77170 -4 ft 10 kts 303°
2026-04-27 12:35 52.31569 4.77053 -4 ft 10 kts 267°
2026-04-27 12:36 52.31564 4.76920 -3 ft 13 kts 267°
2026-04-27 12:36 52.31559 4.76756 -3 ft 15 kts 267°
2026-04-27 12:36 52.31553 4.76583 -3 ft 15 kts 267°
2026-04-27 12:36 52.31547 4.76404 -3 ft 15 kts 267°
2026-04-27 12:37 52.31540 4.76219 -3 ft 16 kts 266°
2026-04-27 12:37 52.31534 4.76034 -3 ft 16 kts 267°
2026-04-27 12:37 52.31528 4.75847 -3 ft 16 kts 267°
2026-04-27 12:37 52.31521 4.75655 -2 ft 16 kts 267°
2026-04-27 12:38 52.31514 4.75463 -2 ft 17 kts 267°
2026-04-27 12:38 52.31508 4.75270 -2 ft 17 kts 267°
2026-04-27 12:38 52.31501 4.75076 -2 ft 17 kts 267°
2026-04-27 12:38 52.31494 4.74878 -2 ft 17 kts 266°
2026-04-27 12:39 52.31487 4.74686 -2 ft 16 kts 266°
2026-04-27 12:39 52.31481 4.74503 -2 ft 15 kts 266°
2026-04-27 12:39 52.31477 4.74368 -2 ft 9 kts 274°
2026-04-27 12:39 52.31526 4.74295 -3 ft 11 kts 355°
2026-04-27 12:40 52.31611 4.74300 -3 ft 13 kts
2026-04-27 12:40 52.31716 4.74310 -3 ft 17 kts
2026-04-27 12:40 52.31840 4.74321 -3 ft 17 kts
2026-04-27 12:40 52.31955 4.74331 -3 ft 14 kts
2026-04-27 12:41 52.32022 4.74291 -4 ft 10 kts 299°
2026-04-27 12:41 52.32034 4.74177 -4 ft 10 kts 274°
2026-04-27 12:41 52.32039 4.74031 -4 ft 14 kts 273°
2026-04-27 12:41 52.32045 4.73859 -4 ft 15 kts 273°
2026-04-27 12:42 52.32051 4.73686 -3 ft 15 kts 274°
2026-04-27 12:42 52.32058 4.73510 -3 ft 15 kts 274°
2026-04-27 12:42 52.32094 4.73350 -3 ft 15 kts 315°
2026-04-27 12:42 52.32173 4.73234 -3 ft 15 kts 320°
2026-04-27 12:43 52.32254 4.73122 -3 ft 15 kts 319°
2026-04-27 12:43 52.32335 4.73009 -3 ft 15 kts 319°
2026-04-27 12:43 52.32414 4.72898 -3 ft 14 kts 319°
2026-04-27 12:43 52.32493 4.72786 -3 ft 14 kts 319°
2026-04-27 12:44 52.32573 4.72673 -3 ft 15 kts 320°
2026-04-27 12:44 52.32657 4.72553 -3 ft 16 kts 317°
2026-04-27 12:44 52.32735 4.72417 -3 ft 16 kts 311°
2026-04-27 12:44 52.32809 4.72278 -3 ft 16 kts 312°
2026-04-27 12:45 52.32885 4.72138 -3 ft 16 kts 311°
2026-04-27 12:45 52.32959 4.72001 -3 ft 16 kts 311°
2026-04-27 12:45 52.33033 4.71862 -3 ft 16 kts 311°
2026-04-27 12:45 52.33108 4.71724 -3 ft 16 kts 310°
2026-04-27 12:46 52.33148 4.71590 -3 ft 12 kts 273°
2026-04-27 12:46 52.33112 4.71462 -3 ft 13 kts 224°
2026-04-27 12:46 52.33043 4.71361 -3 ft 13 kts 221°
2026-04-27 12:46 52.32970 4.71256 -3 ft 14 kts 221°
2026-04-27 12:47 52.32896 4.71150 -3 ft 13 kts 222°
2026-04-27 12:47 52.32865 4.71005 -3 ft 14 kts 272°
2026-04-27 12:47 52.32897 4.70898 -3 ft 10 kts 339°
2026-04-27 12:47 52.33036 4.70900 -3 ft 48 kts
2026-04-27 12:48 52.33611 4.70955 -3 ft 115 kts
2026-04-27 12:48 52.34609 4.71044 -1 ft 170 kts
2026-04-27 12:48 52.35852 4.71138 452 ft 180 kts
2026-04-27 12:48 52.37100 4.71251 1121 ft 184 kts
2026-04-27 12:49 52.38397 4.71397 1671 ft 193 kts
2026-04-27 12:49 52.39787 4.71529 2089 ft 209 kts
2026-04-27 12:49 52.41300 4.71662 2426 ft 231 kts
2026-04-27 12:49 52.42967 4.71457 2855 ft 253 kts 342°
2026-04-27 12:50 52.44450 4.69835 3541 ft 263 kts 316°
2026-04-27 12:50 52.45682 4.67683 4415 ft 264 kts 312°
2026-04-27 12:50 52.46568 4.65062 5197 ft 270 kts 286°
2026-04-27 12:50 52.46748 4.61988 6026 ft 273 kts 271°
2026-04-27 12:51 52.46740 4.58915 6801 ft 276 kts 271°
2026-04-27 12:51 52.46670 4.55782 7581 ft 279 kts 262°
2026-04-27 12:51 52.45896 4.52867 8307 ft 284 kts 232°
2026-04-27 12:51 52.44383 4.50830 9086 ft 285 kts 212°
2026-04-27 12:52 52.42761 4.49011 9805 ft 287 kts 224°
2026-04-27 12:52 52.41497 4.46534 10492 ft 287 kts 240°
2026-04-27 12:52 52.40513 4.43666 11000 ft 297 kts 244°
2026-04-27 12:52 52.39530 4.40589 11300 ft 313 kts 244°
2026-04-27 12:53 52.37410 4.33961 12058 ft 340 kts 243°
2026-04-27 12:53 52.36308 4.30571 12728 ft 343 kts 243°
2026-04-27 12:53 52.35187 4.27143 13407 ft 345 kts 243°
2026-04-27 12:54 52.34060 4.23700 14065 ft 347 kts 243°
2026-04-27 12:54 52.32923 4.20234 14733 ft 349 kts 243°
2026-04-27 12:54 52.31712 4.16805 15419 ft 350 kts 240°
2026-04-27 12:54 52.30354 4.13486 16061 ft 352 kts 236°
2026-04-27 12:55 52.28880 4.10314 16551 ft 358 kts 234°
2026-04-27 12:55 52.27319 4.07036 16777 ft 372 kts 234°
2026-04-27 12:55 52.25710 4.03671 16999 ft 384 kts 234°
2026-04-27 12:55 52.24037 4.00176 17214 ft 395 kts 234°
2026-04-27 12:56 52.22345 3.96643 17419 ft 407 kts 234°
2026-04-27 12:56 52.20566 3.92932 17639 ft 416 kts 234°
2026-04-27 12:56 52.18792 3.89240 18003 ft 422 kts 234°
2026-04-27 12:56 52.16993 3.85503 18468 ft 423 kts 234°
2026-04-27 12:57 52.15168 3.81718 18949 ft 425 kts 234°
2026-04-27 12:57 52.13354 3.77955 19390 ft 427 kts 234°
2026-04-27 12:57 52.11516 3.74150 19822 ft 430 kts 234°
2026-04-27 12:57 52.09670 3.70332 20234 ft 432 kts 234°
2026-04-27 12:58 52.07801 3.66473 20629 ft 434 kts 234°
2026-04-27 12:58 52.05947 3.62650 21045 ft 436 kts 234°
2026-04-27 12:58 52.04065 3.58774 21430 ft 439 kts 234°
2026-04-27 12:58 52.02175 3.54892 21804 ft 441 kts 234°
2026-04-27 12:59 52.00269 3.50977 22193 ft 442 kts 234°
2026-04-27 12:59 51.98429 3.47000 22555 ft 443 kts 236°
2026-04-27 12:59 51.96621 3.42994 22926 ft 445 kts 236°
2026-04-27 12:59 51.94789 3.38944 23271 ft 447 kts 236°
2026-04-27 13:00 51.92956 3.34896 23610 ft 448 kts 236°
2026-04-27 13:00 51.91101 3.30807 23989 ft 449 kts 236°
2026-04-27 13:00 51.89247 3.26727 24470 ft 447 kts 236°
2026-04-27 13:00 51.87426 3.22673 24926 ft 444 kts 238°
2026-04-27 13:01 51.85939 3.18343 25383 ft 440 kts 247°
2026-04-27 13:01 51.84924 3.13755 25844 ft 436 kts 256°
2026-04-27 13:01 51.84368 3.09029 26297 ft 432 kts 263°
2026-04-27 13:01 51.84037 3.04210 26724 ft 431 kts 264°
2026-04-27 13:02 51.83734 2.99442 27129 ft 429 kts 264°
2026-04-27 13:02 51.83429 2.94629 27533 ft 428 kts 264°
2026-04-27 13:02 51.83126 2.89904 27916 ft 426 kts 264°
2026-04-27 13:02 51.82818 2.85199 28307 ft 424 kts 264°
2026-04-27 13:03 51.82505 2.80475 28689 ft 423 kts 264°
2026-04-27 13:03 51.82188 2.75728 29033 ft 422 kts 264°
2026-04-27 13:03 51.81875 2.71094 29376 ft 421 kts 264°
2026-04-27 13:03 51.81554 2.66373 29718 ft 420 kts 264°
2026-04-27 13:04 51.81237 2.61755 30043 ft 419 kts 265°
2026-04-27 13:04 51.80914 2.57098 30378 ft 418 kts 265°
2026-04-27 13:04 51.80592 2.52469 30706 ft 417 kts 265°
2026-04-27 13:04 51.80268 2.47841 30980 ft 416 kts 265°
2026-04-27 13:05 51.79944 2.43208 31262 ft 415 kts 265°
2026-04-27 13:05 51.79618 2.38588 31533 ft 414 kts 265°
2026-04-27 13:05 51.79293 2.34012 31771 ft 414 kts 264°
2026-04-27 13:05 51.78960 2.29366 32005 ft 414 kts 264°
2026-04-27 13:06 51.78630 2.24783 32232 ft 414 kts 264°
2026-04-27 13:06 51.78310 2.20183 32451 ft 414 kts 265°
2026-04-27 13:06 51.78035 2.15561 32641 ft 414 kts 265°
2026-04-27 13:06 51.77770 2.10932 32799 ft 416 kts 265°
2026-04-27 13:07 51.77503 2.06295 32934 ft 417 kts 265°
2026-04-27 13:07 51.77235 2.01689 33071 ft 418 kts 265°
2026-04-27 13:07 51.76958 1.96990 33223 ft 419 kts 265°
2026-04-27 13:07 51.76679 1.92317 33385 ft 419 kts 265°
2026-04-27 13:08 51.76395 1.87637 33532 ft 420 kts 265°
2026-04-27 13:08 51.76110 1.82990 33650 ft 420 kts 265°
2026-04-27 13:08 51.75822 1.78320 33764 ft 421 kts 265°
2026-04-27 13:08 51.75528 1.73618 33883 ft 422 kts 265°
2026-04-27 13:09 51.75133 1.68968 33985 ft 423 kts 262°
2026-04-27 13:09 51.74582 1.64291 34091 ft 424 kts 259°
2026-04-27 13:09 51.73045 1.55162 34247 ft 427 kts 254°
2026-04-27 13:10 51.70948 1.46259 34250 ft 428 kts 250°
2026-04-27 13:10 51.68694 1.37348 34248 ft 429 kts 250°
2026-04-27 13:11 51.66448 1.28497 34247 ft 430 kts 250°
2026-04-27 13:11 51.64182 1.19610 34250 ft 431 kts 250°
2026-04-27 13:12 51.61903 1.10705 34250 ft 431 kts 249°
2026-04-27 13:12 51.59619 1.01823 34246 ft 431 kts 250°
2026-04-27 13:13 51.57322 0.92927 34251 ft 433 kts 250°
2026-04-27 13:13 51.55019 0.84031 34246 ft 434 kts 250°
2026-04-27 13:14 51.52689 0.75080 34253 ft 435 kts 250°
2026-04-27 13:14 51.50367 0.66189 34254 ft 435 kts 250°
2026-04-27 13:15 51.48029 0.57271 34247 ft 437 kts 250°
2026-04-27 13:15 51.45672 0.48310 34245 ft 438 kts 250°
2026-04-27 13:16 51.43304 0.39348 34253 ft 439 kts 250°
2026-04-27 13:16 51.40924 0.30377 34255 ft 439 kts 249°
2026-04-27 13:17 51.38529 0.21384 34252 ft 440 kts 249°
2026-04-27 13:17 51.36119 0.12372 34257 ft 441 kts 249°
2026-04-27 13:18 51.33712 0.03396 34257 ft 442 kts 249°
2026-04-27 13:18 51.31285 -0.05610 34260 ft 443 kts 249°
2026-04-27 13:19 51.28849 -0.14612 34263 ft 444 kts 249°
2026-04-27 13:19 51.26389 -0.23679 34264 ft 445 kts 249°
2026-04-27 13:20 51.23934 -0.32673 34260 ft 446 kts 249°
2026-04-27 13:20 51.21454 -0.41741 34260 ft 446 kts 249°
2026-04-27 13:21 51.18958 -0.50826 34259 ft 448 kts 249°
2026-04-27 13:21 51.16459 -0.59894 34257 ft 450 kts 249°
2026-04-27 13:22 51.13942 -0.68988 34255 ft 451 kts 248°
2026-04-27 13:22 51.11398 -0.78140 34254 ft 452 kts 248°
2026-04-27 13:23 51.08855 -0.87252 34254 ft 453 kts 248°
2026-04-27 13:23 51.06289 -0.96409 34254 ft 454 kts 248°
2026-04-27 13:24 51.04113 -1.04164 34256 ft 455 kts 248°
2026-04-27 13:24 51.01537 -1.13302 34257 ft 455 kts 248°
2026-04-27 13:25 50.98875 -1.22463 34254 ft 458 kts 245°
2026-04-27 13:25 50.95440 -1.30943 34429 ft 462 kts 234°
2026-04-27 13:26 50.93367 -1.34798 34549 ft 463 kts 229°
2026-04-27 13:26 50.91048 -1.38394 34681 ft 464 kts 224°
2026-04-27 13:26 50.88554 -1.41607 34795 ft 465 kts 219°
2026-04-27 13:26 50.85882 -1.44517 34894 ft 465 kts 216°
2026-04-27 13:27 50.83181 -1.47321 35017 ft 464 kts 216°
2026-04-27 13:27 50.80510 -1.50076 35139 ft 463 kts 216°
2026-04-27 13:27 50.77812 -1.52856 35243 ft 463 kts 216°
2026-04-27 13:27 50.75253 -1.55500 35247 ft 462 kts 216°
2026-04-27 13:28 50.69899 -1.61032 35251 ft 461 kts 216°
2026-04-27 13:28 50.64536 -1.66567 35252 ft 462 kts 215°
2026-04-27 13:29 50.59181 -1.72085 35251 ft 461 kts 215°
2026-04-27 13:29 50.53818 -1.77585 35252 ft 459 kts 215°
2026-04-27 13:30 50.48492 -1.83024 35248 ft 459 kts 214°
2026-04-27 13:30 50.43166 -1.88444 35246 ft 460 kts 214°
2026-04-27 13:31 50.37801 -1.93893 35246 ft 459 kts 214°
2026-04-27 13:31 50.32467 -1.99298 35247 ft 459 kts 214°
2026-04-27 13:32 50.27098 -2.04719 35246 ft 458 kts 214°
2026-04-27 13:32 50.21769 -2.10032 35249 ft 457 kts 213°
2026-04-27 13:33 50.16378 -2.15268 35253 ft 458 kts 213°
2026-04-27 13:33 50.10976 -2.20508 35257 ft 459 kts 213°
2026-04-27 13:34 50.05566 -2.25749 35259 ft 460 kts 213°
2026-04-27 13:34 50.00153 -2.30986 35259 ft 460 kts 213°
2026-04-27 13:35 49.94747 -2.36201 35246 ft 460 kts 213°
2026-04-27 13:35 49.89335 -2.41404 35252 ft 460 kts 213°
2026-04-27 13:36 49.83893 -2.46626 35243 ft 459 kts 213°
2026-04-27 13:36 49.78480 -2.51811 35238 ft 458 kts 214°
2026-04-27 13:37 49.73096 -2.56958 35241 ft 459 kts 213°
2026-04-27 13:37 49.67661 -2.62142 35241 ft 461 kts 213°
2026-04-27 13:38 49.62210 -2.67323 35242 ft 460 kts 213°
2026-04-27 13:38 49.56801 -2.72450 35241 ft 455 kts 213°
2026-04-27 13:39 49.51442 -2.77532 35237 ft 450 kts 212°
2026-04-27 13:39 49.46135 -2.82542 35242 ft 448 kts 211°
2026-04-27 13:40 49.40816 -2.87544 35220 ft 448 kts 211°
2026-04-27 13:40 49.35511 -2.92518 35210 ft 449 kts 211°
2026-04-27 13:41 49.30200 -2.97486 35218 ft 449 kts 211°
2026-04-27 13:41 49.24890 -3.02440 35209 ft 449 kts 211°
2026-04-27 13:42 49.19590 -3.07377 35198 ft 449 kts 211°
2026-04-27 13:42 49.14231 -3.12355 35204 ft 451 kts 211°
2026-04-27 13:43 49.08907 -3.17286 35187 ft 452 kts 211°
2026-04-27 13:43 49.03530 -3.22258 35186 ft 453 kts 211°
2026-04-27 13:44 48.98167 -3.27204 35188 ft 453 kts 211°
2026-04-27 13:44 48.92785 -3.32154 35203 ft 452 kts 211°
2026-04-27 13:45 48.87403 -3.37089 35209 ft 452 kts 211°
2026-04-27 13:45 48.82046 -3.41990 35191 ft 452 kts 211°
2026-04-27 13:46 48.76650 -3.46914 35190 ft 454 kts 211°
2026-04-27 13:46 48.71269 -3.51810 35199 ft 452 kts 211°
2026-04-27 13:47 48.65881 -3.56704 35173 ft 452 kts 211°
2026-04-27 13:47 48.60516 -3.61565 35184 ft 453 kts 211°
2026-04-27 13:48 48.55135 -3.66425 35183 ft 452 kts 210°
2026-04-27 13:48 48.49755 -3.71272 35173 ft 452 kts 210°
2026-04-27 13:49 48.44358 -3.76122 35194 ft 453 kts 210°
2026-04-27 13:49 48.38978 -3.80946 35187 ft 452 kts 210°
2026-04-27 13:50 48.33575 -3.85780 35167 ft 452 kts 210°
2026-04-27 13:50 48.28173 -3.90600 35173 ft 452 kts 210°
2026-04-27 13:51 48.22811 -3.95371 35167 ft 452 kts 210°
2026-04-27 13:51 48.17400 -4.00176 35157 ft 451 kts 210°
2026-04-27 13:52 48.12013 -4.04946 35163 ft 451 kts 210°
2026-04-27 13:52 48.06640 -4.09695 35158 ft 451 kts 210°
2026-04-27 13:53 47.98560 -4.16815 35167 ft 452 kts 210°
2026-04-27 13:54 47.93149 -4.21569 35171 ft 451 kts 210°
2026-04-27 13:54 47.87778 -4.26278 35164 ft 450 kts 210°
2026-04-27 13:55 47.82368 -4.31006 35166 ft 450 kts 210°
2026-04-27 13:55 47.77076 -4.35835 35153 ft 451 kts 212°
2026-04-27 13:56 47.71776 -4.40771 35155 ft 451 kts 212°
2026-04-27 13:56 47.66436 -4.45719 35159 ft 450 kts 212°
2026-04-27 13:57 47.61162 -4.50586 35155 ft 449 kts 212°
2026-04-27 13:57 47.55863 -4.55459 35146 ft 449 kts 212°
2026-04-27 13:58 47.50567 -4.60316 35155 ft 449 kts 212°
2026-04-27 13:58 47.45284 -4.65151 35159 ft 449 kts 211°
2026-04-27 13:59 47.39954 -4.70016 35151 ft 449 kts 211°
2026-04-27 13:59 47.34655 -4.74843 35156 ft 449 kts 211°
2026-04-27 14:00 47.29375 -4.79640 35161 ft 449 kts 212°
2026-04-27 14:00 47.24047 -4.84471 35163 ft 449 kts 212°
2026-04-27 14:01 47.18763 -4.89249 35149 ft 448 kts 212°
2026-04-27 14:01 47.13456 -4.94043 35153 ft 449 kts 212°
2026-04-27 14:02 47.08145 -4.98822 35155 ft 449 kts 212°
2026-04-27 14:02 47.02856 -5.03575 35155 ft 449 kts 212°
2026-04-27 14:03 46.97551 -5.08337 35162 ft 448 kts 212°
2026-04-27 14:03 46.92232 -5.13106 35162 ft 448 kts 212°
2026-04-27 14:04 46.86941 -5.17841 35167 ft 448 kts 212°
2026-04-27 14:04 46.81647 -5.22567 35175 ft 447 kts 212°
2026-04-27 14:05 46.76341 -5.27293 35160 ft 446 kts 212°
2026-04-27 14:05 46.71059 -5.31986 35165 ft 446 kts 212°
2026-04-27 14:06 46.65775 -5.36670 35180 ft 446 kts 212°
2026-04-27 14:06 46.60508 -5.41327 35159 ft 445 kts 213°
2026-04-27 14:07 46.55217 -5.45996 35173 ft 445 kts 213°
2026-04-27 14:07 46.49937 -5.50643 35161 ft 444 kts 213°
2026-04-27 14:08 46.44701 -5.55244 35160 ft 444 kts 213°
2026-04-27 14:08 46.39418 -5.59875 35167 ft 444 kts 213°
2026-04-27 14:09 46.34155 -5.64478 35174 ft 443 kts 213°
2026-04-27 14:09 46.28876 -5.69082 35167 ft 444 kts 212°
2026-04-27 14:10 46.23612 -5.73663 35166 ft 444 kts 212°
2026-04-27 14:10 46.18329 -5.78250 35164 ft 443 kts 212°
2026-04-27 14:11 46.13059 -5.82817 35165 ft 443 kts 212°
2026-04-27 14:11 46.07798 -5.87364 35150 ft 442 kts 212°
2026-04-27 14:12 46.02532 -5.91907 35159 ft 442 kts 212°
2026-04-27 14:12 45.97256 -5.96449 35163 ft 441 kts 212°
2026-04-27 14:13 45.92006 -6.00957 35158 ft 441 kts 212°
2026-04-27 14:13 45.86730 -6.05477 35164 ft 442 kts 212°
2026-04-27 14:14 45.81476 -6.09969 35154 ft 443 kts 212°
2026-04-27 14:14 45.76211 -6.14460 35149 ft 441 kts 212°
2026-04-27 14:15 45.70920 -6.18964 35164 ft 442 kts 213°
2026-04-27 14:15 45.65656 -6.23432 35155 ft 441 kts 213°
2026-04-27 14:16 45.60404 -6.27883 35165 ft 441 kts 213°
2026-04-27 14:16 45.55162 -6.32314 35157 ft 440 kts 213°
2026-04-27 14:17 45.49873 -6.36777 35172 ft 440 kts 213°
2026-04-27 14:17 45.44625 -6.41195 35156 ft 439 kts 213°
2026-04-27 14:18 45.39381 -6.45600 35162 ft 439 kts 213°
2026-04-27 14:18 45.34148 -6.49987 35158 ft 439 kts 213°
2026-04-27 14:19 45.28885 -6.54388 35157 ft 438 kts 213°
2026-04-27 14:19 45.23665 -6.58743 35158 ft 437 kts 213°
2026-04-27 14:20 45.18430 -6.63103 35147 ft 437 kts 213°
2026-04-27 14:20 45.13227 -6.67427 35153 ft 436 kts 212°
2026-04-27 14:21 45.07973 -6.71785 35154 ft 437 kts 212°
2026-04-27 14:21 45.02752 -6.76107 35145 ft 436 kts 212°
2026-04-27 14:22 44.97552 -6.80404 35163 ft 436 kts 212°
2026-04-27 14:22 44.92323 -6.84715 35146 ft 435 kts 212°
2026-04-27 14:23 44.87107 -6.89005 35144 ft 436 kts 212°
2026-04-27 14:23 44.81890 -6.93404 35138 ft 435 kts 214°
2026-04-27 14:24 44.76803 -6.97911 35140 ft 434 kts 214°
2026-04-27 14:24 44.71692 -7.02425 35142 ft 434 kts 214°
2026-04-27 14:25 44.66599 -7.06921 35141 ft 434 kts 214°
2026-04-27 14:25 44.61508 -7.11411 35134 ft 433 kts 214°
2026-04-27 14:26 44.56416 -7.15891 35136 ft 433 kts 214°
2026-04-27 14:26 44.51323 -7.20362 35134 ft 432 kts 214°
2026-04-27 14:27 44.46238 -7.24819 35131 ft 433 kts 214°
2026-04-27 14:27 44.41159 -7.29262 35123 ft 432 kts 214°
2026-04-27 14:28 44.36054 -7.33719 35130 ft 433 kts 214°
2026-04-27 14:28 44.30975 -7.38141 35134 ft 432 kts 214°
2026-04-27 14:29 44.25867 -7.42582 35127 ft 432 kts 214°
2026-04-27 14:29 44.20772 -7.47001 35132 ft 432 kts 214°
2026-04-27 14:30 44.15684 -7.51404 35122 ft 432 kts 214°
2026-04-27 14:30 44.10601 -7.55795 35124 ft 432 kts 214°
2026-04-27 14:31 44.05511 -7.60182 35121 ft 431 kts 214°
2026-04-27 14:31 44.00440 -7.64547 35118 ft 431 kts 214°
2026-04-27 14:32 43.95334 -7.68931 35119 ft 431 kts 213°
2026-04-27 14:32 43.90253 -7.73284 35109 ft 431 kts 213°
2026-04-27 14:33 43.85173 -7.77628 35099 ft 430 kts 213°
2026-04-27 14:33 43.80088 -7.81968 35090 ft 431 kts 213°
2026-04-27 14:34 43.74984 -7.86315 35091 ft 432 kts 213°
2026-04-27 14:34 43.69881 -7.90651 35092 ft 432 kts 213°
2026-04-27 14:35 43.64774 -7.94983 35080 ft 432 kts 213°
2026-04-27 14:35 43.59672 -7.99302 35071 ft 431 kts 213°
2026-04-27 14:36 43.54576 -8.03607 35068 ft 431 kts 213°
2026-04-27 14:36 43.49481 -8.07902 35067 ft 430 kts 213°
2026-04-27 14:37 43.44389 -8.12185 35064 ft 429 kts 213°
2026-04-27 14:37 43.39302 -8.16457 35063 ft 429 kts 213°
2026-04-27 14:38 43.34214 -8.20721 35056 ft 429 kts 213°
2026-04-27 14:38 43.29120 -8.24983 35055 ft 429 kts 213°
2026-04-27 14:39 43.24041 -8.29223 35048 ft 430 kts 213°
2026-04-27 14:39 43.18918 -8.33491 35049 ft 430 kts 213°
2026-04-27 14:40 43.13841 -8.37712 35055 ft 430 kts 213°
2026-04-27 14:40 43.08729 -8.41954 35056 ft 429 kts 213°
2026-04-27 14:41 43.03649 -8.46161 35054 ft 429 kts 213°
2026-04-27 14:41 42.98564 -8.50364 35045 ft 428 kts 213°
2026-04-27 14:42 42.93465 -8.54570 35041 ft 428 kts 213°
2026-04-27 14:42 42.88360 -8.58771 35046 ft 428 kts 213°
2026-04-27 14:43 42.83288 -8.62941 35043 ft 429 kts 213°
2026-04-27 14:43 42.78176 -8.67133 35049 ft 430 kts 213°
2026-04-27 14:44 42.73040 -8.71337 35044 ft 430 kts 212°
2026-04-27 14:44 42.67926 -8.75515 35036 ft 431 kts 213°
2026-04-27 14:45 42.62800 -8.79695 35026 ft 431 kts 212°
2026-04-27 14:45 42.57672 -8.83868 35013 ft 430 kts 212°
2026-04-27 14:46 42.52555 -8.88023 35004 ft 430 kts 212°
2026-04-27 14:46 42.47434 -8.92176 34999 ft 431 kts 212°
2026-04-27 14:47 42.42285 -8.96341 34989 ft 432 kts 212°
2026-04-27 14:47 42.37152 -9.00484 34988 ft 432 kts 212°
2026-04-27 14:48 42.31976 -9.04657 34982 ft 432 kts 212°
2026-04-27 14:48 42.24244 -9.10874 34986 ft 433 kts 212°
2026-04-27 14:49 42.19090 -9.15011 34982 ft 432 kts 212°
2026-04-27 14:49 42.13935 -9.19139 34975 ft 432 kts 212°
2026-04-27 14:50 42.08780 -9.23258 34978 ft 432 kts 212°
2026-04-27 14:50 42.03603 -9.27390 34975 ft 432 kts 212°
2026-04-27 14:51 41.98437 -9.31507 34974 ft 433 kts 212°
2026-04-27 14:51 41.93277 -9.35626 34973 ft 433 kts 213°
2026-04-27 14:52 41.88277 -9.40099 34980 ft 433 kts 216°
2026-04-27 14:52 41.83293 -9.44643 34986 ft 432 kts 216°
2026-04-27 14:53 41.78353 -9.49148 34990 ft 432 kts 216°
2026-04-27 14:53 41.73385 -9.53674 34996 ft 432 kts 216°
2026-04-27 14:54 41.68417 -9.58191 34997 ft 433 kts 216°
2026-04-27 14:54 41.63437 -9.62711 34997 ft 433 kts 216°
2026-04-27 14:55 41.58487 -9.67195 34994 ft 433 kts 215°
2026-04-27 14:55 41.53483 -9.71720 34994 ft 434 kts 215°
2026-04-27 14:56 41.48509 -9.76209 34997 ft 434 kts 215°
2026-04-27 14:56 41.43510 -9.80713 34997 ft 434 kts 215°
2026-04-27 14:57 41.38518 -9.85201 35000 ft 434 kts 215°
2026-04-27 14:57 41.33495 -9.89710 34999 ft 435 kts 215°
2026-04-27 14:58 41.28489 -9.94195 34999 ft 435 kts 215°
2026-04-27 14:58 41.23518 -9.98640 35002 ft 434 kts 215°
2026-04-27 14:59 41.18486 -10.03130 35000 ft 435 kts 214°
2026-04-27 14:59 41.13471 -10.07597 35002 ft 434 kts 215°
2026-04-27 15:00 41.08487 -10.12029 35001 ft 435 kts 214°
2026-04-27 15:00 41.03468 -10.16484 35001 ft 435 kts 214°
2026-04-27 15:01 40.98428 -10.20947 35004 ft 436 kts 214°
2026-04-27 15:01 40.93384 -10.25406 35002 ft 437 kts 214°
2026-04-27 15:02 40.88367 -10.29834 35002 ft 436 kts 214°
2026-04-27 15:02 40.83331 -10.34272 35006 ft 436 kts 214°
2026-04-27 15:03 40.78297 -10.38697 35005 ft 435 kts 214°
2026-04-27 15:03 40.73231 -10.43143 35004 ft 435 kts 214°
2026-04-27 15:04 40.68219 -10.47533 35009 ft 435 kts 214°
2026-04-27 15:04 40.63179 -10.51941 35011 ft 436 kts 214°
2026-04-27 15:05 40.58137 -10.56341 35009 ft 436 kts 214°
2026-04-27 15:05 40.53096 -10.60732 35011 ft 436 kts 214°
2026-04-27 15:06 40.48090 -10.65087 35011 ft 437 kts 214°
2026-04-27 15:06 40.42964 -10.69535 35012 ft 438 kts 213°
2026-04-27 15:07 40.37880 -10.73940 35011 ft 438 kts 213°
2026-04-27 15:07 40.32804 -10.78330 35009 ft 438 kts 213°
2026-04-27 15:08 40.27731 -10.82710 35011 ft 438 kts 213°